Weather History for Salt Lake City, UT

Change the Weather History Date:

Wednesday, January 30, 2013

  Actual Average Record
Temperature  
Mean Temperature 30 °F 30 °F  
Max Temperature 35 °F 39 °F 61 °F (1971)
Min Temperature 24 °F 22 °F -6 °F (1979)
Degree Days  
Heating Degree Days 35 35  
Month to date heating degree days 1379 1069  
Since 1 July heating degree days 3194 3363  
Cooling Degree Days 0 0  
Month to date cooling degree days 0 0  
Year to date cooling degree days 0 0  
Moisture  
Dew Point 27 °F    
Average Humidity 84    
Maximum Humidity 92    
Minimum Humidity 75    
Precipitation  
Precipitation 0.13 in 0.04 in 0.39 in (1887)
Month to date precipitation 1.52 1.21  
Year to date precipitation 1.52 1.21  
Snow  
Snow 1.50 in 0.30 in 4.20 in (1996)
Month to date snowfall 23.8 12.1  
Since 1 July snowfall 52.4 34.3  
Snow Depth 11.00 in    
Sea Level Pressure  
Sea Level Pressure 30.25 in    
Wind  
Wind Speed 9 mph (SE)    
Max Wind Speed 17 mph    
Max Gust Speed 21 mph    
Visibility 6 miles    
Events Snow    
T = Trace of Precipitation, MM = Missing Value Source: NWS Daily Summary

Daily Weather History Graph

Daily Weather History Graph

Search for Another Location

Airport:

Trip Planner

Search our weather history database for the weather conditions in past years. The results will help you decide how hot, cold, wet, or windy it might be!

Date:

Astronomy

Jan. 30, 2013 Rise Set
Actual Time 7:39 AM MST 5:43 PM MST
Civil Twilight 7:10 AM MST 6:12 PM MST
Nautical Twilight 6:37 AM MST 6:45 PM MST
Astronomical Twilight 6:05 AM MST 7:17 PM MST
Moon 9:47 PM MST (1/30) 9:07 AM MST (1/30)
Length of Visible Light 11h 02m
Length of Day
10h 03m
Waning Gibbous, 87% of the Moon is Illuminated
Jan 30
Waning Gibbous
Feb 3
Last Quarter
Feb 10
New
Feb 17
First Quarter
Feb 25
Full

Hourly Weather History & Observations

Time (MST) Temp. Windchill Dew Point Humidity Pressure Visibility Wind Dir Wind Speed Gust Speed Precip Events Conditions
12:53 AM 27.0 °F 21.6 °F 25.0 °F 92% 30.27 in 6.0 mi SSW 4.6 mph - 0.00 in   Mostly Cloudy
1:18 AM 27.0 °F 20.5 °F 25.0 °F 92% 30.20 in 6.0 mi SSE 5.8 mph - N/A   Mostly Cloudy
1:53 AM 27.0 °F 20.5 °F 24.1 °F 89% 30.27 in 6.0 mi SE 5.8 mph - N/A   Mostly Cloudy
2:53 AM 25.0 °F 16.3 °F 23.0 °F 92% 30.28 in 8.0 mi SSE 8.1 mph - N/A   Scattered Clouds
3:53 AM 26.1 °F 15.6 °F 23.0 °F 88% 30.26 in 8.0 mi SE 11.5 mph - N/A   Mostly Cloudy
4:53 AM 26.1 °F 15.6 °F 23.0 °F 88% 30.25 in 4.0 mi SSE 11.5 mph - 0.00 in Snow Light Snow
5:04 AM 26.1 °F 16.2 °F 23.0 °F 88% 30.18 in 2.5 mi SSE 10.4 mph - 0.01 in Snow Light Snow
5:30 AM 27.0 °F 18.0 °F 25.0 °F 92% 30.19 in 1.8 mi SSE 9.2 mph - 0.01 in Snow Light Snow
5:53 AM 28.0 °F 19.3 °F 25.0 °F 88% 30.25 in 1.0 mi SSE 9.2 mph - 0.02 in Snow Light Snow
6:20 AM 28.0 °F 19.3 °F 26.1 °F 92% 30.18 in 1.0 mi SE 9.2 mph - 0.01 in Snow Light Snow
6:53 AM 28.0 °F 18.6 °F 26.1 °F 92% 30.26 in 1.2 mi SE 10.4 mph - 0.03 in Snow Light Snow
7:36 AM 28.0 °F 19.3 °F 26.1 °F 92% 30.19 in 1.2 mi SSE 9.2 mph - 0.02 in Snow Light Snow
7:53 AM 28.0 °F 19.3 °F 27.0 °F 96% 30.27 in 1.0 mi ESE 9.2 mph - 0.03 in Snow Light Snow
8:53 AM 28.9 °F 21.1 °F 27.0 °F 92% 30.26 in 1.2 mi SE 8.1 mph - 0.03 in Snow Light Snow
9:53 AM 30.0 °F 19.5 °F 26.1 °F 85% 30.27 in 1.2 mi SSE 13.8 mph - 0.01 in Snow Light Snow
10:21 AM 30.0 °F 20.5 °F 27.0 °F 88% 30.21 in 3.0 mi SE 11.5 mph - 0.00 in Snow Light Snow
10:53 AM 30.0 °F 19.5 °F 27.0 °F 88% 30.27 in 10.0 mi SE 13.8 mph - 0.01 in   Overcast
11:00 AM 30.9 °F 21.7 °F 27.0 °F 85% 30.22 in 10.0 mi SSE 11.5 mph - N/A   Overcast
11:07 AM 30.9 °F 21.2 °F 27.0 °F 85% 30.22 in 2.0 mi SE 12.7 mph - 0.00 in Snow Light Snow
11:13 AM 30.9 °F 20.2 °F 27.0 °F 85% 30.22 in 1.5 mi SE 15.0 mph - 0.00 in Snow Light Snow
11:26 AM 30.9 °F 22.2 °F 28.0 °F 89% 30.22 in 2.0 mi SSE 10.4 mph - 0.00 in Snow Light Snow
11:35 AM 30.9 °F 20.7 °F 28.0 °F 89% 30.22 in 2.0 mi SSE 13.8 mph - 0.00 in   Overcast
11:42 AM 30.9 °F 22.2 °F 28.0 °F 89% 30.22 in 7.0 mi SE 10.4 mph - 0.00 in   Overcast
11:53 AM 30.9 °F 20.7 °F 28.0 °F 89% 30.28 in 9.0 mi SE 13.8 mph - 0.00 in Snow Light Snow
12:53 PM 33.1 °F 24.4 °F 27.0 °F 78% 30.27 in 10.0 mi South 11.5 mph - 0.00 in Snow Light Snow
1:53 PM 34.0 °F 26.0 °F 28.0 °F 79% 30.24 in 10.0 mi SSE 10.4 mph - 0.00 in Snow Light Snow
2:53 PM 35.1 °F 27.9 °F 28.0 °F 76% 30.25 in 10.0 mi SSE 9.2 mph - 0.00 in Snow Light Snow
3:53 PM 35.1 °F 27.9 °F 28.0 °F 76% 30.24 in 10.0 mi SE 9.2 mph - 0.00 in   Overcast
4:53 PM 35.1 °F 27.9 °F 28.0 °F 76% 30.25 in 10.0 mi ESE 9.2 mph - N/A   Mostly Cloudy
5:53 PM 35.1 °F 27.9 °F 28.9 °F 78% 30.24 in 10.0 mi SSE 9.2 mph - N/A   Mostly Cloudy
6:53 PM 35.1 °F 28.6 °F 28.9 °F 78% 30.25 in 10.0 mi SE 8.1 mph - N/A   Mostly Cloudy
7:53 PM 34.0 °F 28.0 °F 28.9 °F 82% 30.26 in 10.0 mi ESE 6.9 mph - N/A   Mostly Cloudy
8:53 PM 34.0 °F 28.0 °F 28.9 °F 82% 30.25 in 10.0 mi SE 6.9 mph - N/A   Mostly Cloudy
9:53 PM 34.0 °F 28.0 °F 28.9 °F 82% 30.26 in 10.0 mi SE 6.9 mph - N/A   Mostly Cloudy
10:53 PM 34.0 °F 29.8 °F 28.9 °F 82% 30.27 in 10.0 mi ESE 4.6 mph - N/A   Mostly Cloudy
11:53 PM 35.1 °F 30.1 °F 28.9 °F 78% 30.29 in 10.0 mi ESE 5.8 mph - N/A   Mostly Cloudy